Flag for U.S.A. Weather past 2 weeks in Provo, Utah, U.S.A.

Now
90 °F

Scattered clouds.


Feels Like: 86 °F
Forecast: 59 / 87 °F
Wind: No wind

Location: Provo Municipal

Current Time: Sep 17, 2014 at 4:36:28 PM

Latest Report: Sep 17, 2014 at 3:53 PM


Visibility: 15 mi

Pressure: 29.95 "Hg

Humidity: 21%

Dew point: 45 °F

Location of ProvoLocation

Historic Weather in Provo — Graph

°F

Provo temperature yesterday

Maximum temperature yesterday: 88 °F (at 3:50 PM)
Minimum temperature yesterday: 54 °F (at 3:55 AM)
Average temperature yesterday: 65 °F

Past Weeks' High & Low Weather Summary

 TemperatureHumidityPressure
High90 °F (Sep 2, 4:52 PM)94% (Sep 9, 5:53 PM)30.29 "Hg (Sep 9, 5:53 PM)
Low45 °F (Sep 12, 4:35 AM)15% (Sep 6, 5:50 PM)29.80 "Hg (Sep 3, 3:51 PM)
Average63 °F56%30.07 "Hg
* Reported Sep 2 2:48 PM — Sep 17 2:51 PM, Provo, Weather by CustomWeather, © 2014

Note: Actual official high and low records may vary slightly from our data, if they occured in-between our weather recording intervals... More about our weather records

Advertising

Provo weather history for previous 24 hours

 ConditionsComfort  
Time TempWeatherWind HumidityBarometerVisibility
2:51 PM
Sep 17
88 °FScattered clouds.No wind24%29.97 "Hg15 mi
1:47 PM84 °FScattered clouds.5 mph23%30.00 "Hg15 mi
12:47 PM81 °FScattered clouds.5 mph42%30.02 "Hg15 mi
11:50 AM79 °FSunny.6 mph45%30.05 "Hg15 mi
10:57 AM79 °FSunny.6 mph34%30.05 "Hg15 mi
9:55 AM70 °FSunny.No wind43%30.06 "Hg15 mi
8:55 AM66 °FSunny.No wind46%30.05 "Hg15 mi
7:51 AM57 °FClear.12 mph63%30.05 "Hg15 mi
6:49 AM54 °FClear.No wind72%30.03 "Hg15 mi
6:35 AM54 °FClear.No wind72%30.03 "Hg10 mi
5:55 AM63 °FClear.5 mph49%30.02 "Hg10 mi
5:35 AM61 °FClear.No wind59%30.02 "Hg10 mi
5:15 AM63 °FClear.No wind52%30.02 "Hg10 mi
4:55 AM64 °FClear.5 mph49%30.01 "Hg10 mi
4:35 AM61 °FClear.3 mph55%30.01 "Hg10 mi
4:15 AM55 °FClear.7 mph72%30.02 "Hg10 mi
3:55 AM57 °FClear.5 mph67%30.02 "Hg10 mi
3:35 AM57 °FClear.5 mph67%30.02 "Hg10 mi
3:15 AM57 °FClear.3 mph67%30.02 "Hg10 mi
2:55 AM57 °FClear.No wind67%30.03 "Hg10 mi
2:35 AM63 °FClear.5 mph52%30.03 "Hg10 mi
2:15 AM64 °FClear.9 mph49%30.02 "Hg10 mi
1:55 AM64 °FClear.7 mph49%30.02 "Hg10 mi
1:35 AM63 °FClear.No wind59%30.02 "Hg10 mi
1:15 AM63 °FPassing clouds.3 mph56%30.02 "Hg10 mi
12:55 AM64 °FClear.No wind49%30.02 "Hg10 mi
12:35 AM68 °FClear.3 mph40%30.02 "Hg10 mi
11:55 PM
Sep 16
72 °FClear.No wind38%30.03 "Hg10 mi
11:35 PM70 °FClear.5 mph43%30.03 "Hg10 mi
11:15 PM66 °FClear.5 mph52%30.03 "Hg10 mi
10:55 PM66 °FClear.No wind49%30.03 "Hg10 mi
10:35 PM64 °FClear.No wind52%30.03 "Hg10 mi
10:15 PM66 °FClear.5 mph49%30.02 "Hg10 mi
9:55 PM66 °FClear.6 mph49%30.02 "Hg10 mi
9:35 PM68 °FClear.7 mph46%30.02 "Hg10 mi
8:47 PM73 °FClear.7 mph41%30.02 "Hg15 mi
7:47 PM75 °FSunny.No wind44%30.01 "Hg15 mi
6:47 PM79 °FPassing clouds.3 mph45%30.00 "Hg15 mi
4:55 PM84 °FScattered clouds.3 mph35%30.03 "Hg15 mi
Weather by CustomWeather, © 2014

See weather overviewHow to use our weather pages